CW5619 Weather Reports


Display with metric or nautical units.
time (UTC)temp
F
wind
direction
speed
MPH
gust
MPH
rain 1hr
in
rain 24hr
in
rain mn
in
humidity
%
barometer
mb
20260510211403 103 226 4.0 10.0 0.00 0.00 0.00 7 1011.9
20260510210903 101 177 2.0 6.0 0.00 0.00 0.00 7 1011.9
20260510210404 102 272 2.0 9.0 0.00 0.00 0.00 7 1011.9
20260510205903 103 250 4.0 12.0 0.00 0.00 0.00 6 1012.0
20260510205403 102 144 3.0 12.0 0.00 0.00 0.00 6 1012.1
20260510204903 102 231 3.0 12.0 0.00 0.00 0.00 6 1012.1
20260510204404 103 334 2.0 7.0 0.00 0.00 0.00 6 1012.3
20260510203904 103 235 2.0 8.0 0.00 0.00 0.00 6 1012.3
20260510203403 102 225 2.0 10.0 0.00 0.00 0.00 7 1012.3
20260510202903 103 227 3.0 10.0 0.00 0.00 0.00 7 1012.4
20260510202403 102 10 3.0 8.0 0.00 0.00 0.00 7 1012.4
20260510201904 102 312 3.0 8.0 0.00 0.00 0.00 7 1012.5
20260510201403 102 239 2.0 8.0 0.00 0.00 0.00 7 1012.5
20260510200904 102 285 3.0 8.0 0.00 0.00 0.00 7 1012.6
20260510200403 102 234 3.0 9.0 0.00 0.00 0.00 7 1012.6
20260510195903 102 221 3.0 9.0 0.00 0.00 0.00 7 1012.7
20260510195404 101 182 2.0 7.0 0.00 0.00 0.00 7 1012.7
20260510194904 102 183 3.0 7.0 0.00 0.00 0.00 7 1012.8
20260510194403 101 228 2.0 12.0 0.00 0.00 0.00 7 1012.8
20260510193903 101 214 2.0 12.0 0.00 0.00 0.00 7 1012.8
20260510193403 101 346 3.0 8.0 0.00 0.00 0.00 7 1012.8
20260510192904 101 236 4.0 8.0 0.00 0.00 0.00 7 1012.9
20260510192403 101 250 2.0 8.0 0.00 0.00 0.00 7 1012.9
20260510191903 101 2 2.0 8.0 0.00 0.00 0.00 7 1012.9
20260510191404 101 325 1.0 8.0 0.00 0.00 0.00 7 1013.0
20260510190904 101 344 3.0 8.0 0.00 0.00 0.00 7 1013.0
20260510190403 100 40 2.0 8.0 0.00 0.00 0.00 8 1012.9
20260510185903 101 252 3.0 8.0 0.00 0.00 0.00 7 1013.0
20260510185404 100 175 1.0 6.0 0.00 0.00 0.00 8 1013.1
20260510184904 100 22 2.0 6.0 0.00 0.00 0.00 8 1013.1
20260510183904 99 263 2.0 6.0 0.00 0.00 0.00 8 1013.2
20260510183404 99 232 3.0 6.0 0.00 0.00 0.00 8 1013.3
20260510182903 98 345 1.0 6.0 0.00 0.00 0.00 9 1013.3
20260510182403 97 227 2.0 6.0 0.00 0.00 0.00 8 1013.2
20260510181903 97 286 1.0 3.0 0.00 0.00 0.00 9 1013.4
20260510181404 97 252 1.0 3.0 0.00 0.00 0.00 9 1013.4
20260510180903 96 49 1.0 3.0 0.00 0.00 0.00 9 1013.4
20260510180403 97 249 2.0 3.0 0.00 0.00 0.00 9 1013.4
20260510175904 97 271 1.0 3.0 0.00 0.00 0.00 10 1013.4
20260510175403 96 251 2.0 3.0 0.00 0.00 0.00 10 1013.4
20260510174403 94 222 2.0 6.0 0.00 0.00 0.00 10 1013.4
20260510173403 93 219 1.0 3.0 0.00 0.00 0.00 10 1013.5
20260510172903 93 85 2.0 3.0 0.00 0.00 0.00 10 1013.5
20260510172404 93 147 2.0 3.0 0.00 0.00 0.00 10 1013.5
20260510171403 92 178 1.0 3.0 0.00 0.00 0.00 11 1013.5
20260510170903 92 253 2.0 3.0 0.00 0.00 0.00 11 1013.6
20260510170403 92 211 1.0 3.0 0.00 0.00 0.00 11 1013.6
20260510165403 90 210 2.0 3.0 0.00 0.00 0.00 11 1013.6
20260510164903 90 130 1.0 3.0 0.00 0.00 0.00 12 1013.5
20260510164404 90 131 2.0 3.0 0.00 0.00 0.00 12 1013.5
20260510163903 90 212 1.0 3.0 0.00 0.00 0.00 12 1013.5
20260510163403 89 163 1.0 3.0 0.00 0.00 0.00 12 1013.5
20260510162904 89 89 2.0 3.0 0.00 0.00 0.00 13 1013.6
20260510162403 89 143 1.0 5.0 0.00 0.00 0.00 13 1013.6
20260510161903 88 120 2.0 5.0 0.00 0.00 0.00 14 1013.6
20260510161404 88 184 1.0 3.0 0.00 0.00 0.00 14 1013.7
20260510160903 87 151 1.0 6.0 0.00 0.00 0.00 15 1013.6
20260510160404 87 164 1.0 6.0 0.00 0.00 0.00 15 1013.7
20260510155903 86 158 2.0 5.0 0.00 0.00 0.00 15 1013.6
20260510155403 85 158 1.0 3.0 0.00 0.00 0.00 15 1013.6
20260510154903 84 123 0.0 3.0 0.00 0.00 0.00 16 1013.5
20260510154403 84 84 2.0 6.0 0.00 0.00 0.00 16 1013.5
20260510153904 84 221 2.0 6.0 0.00 0.00 0.00 16 1013.4
20260510152904 83 55 1.0 3.0 0.00 0.00 0.00 17 1013.5
20260510152404 82 223 1.0 6.0 0.00 0.00 0.00 18 1013.5
20260510151903 81 107 1.0 6.0 0.00 0.00 0.00 18 1013.6
20260510151404 81 160 2.0 3.0 0.00 0.00 0.00 18 1013.5
20260510150904 80 100 1.0 3.0 0.00 0.00 0.00 19 1013.5
20260510150403 80 218 1.0 3.0 0.00 0.00 0.00 19 1013.4
20260510145904 80 81 1.0 3.0 0.00 0.00 0.00 19 1013.5
20260510144903 79 142 1.0 3.0 0.00 0.00 0.00 20 1013.4
20260510144404 78 119 2.0 3.0 0.00 0.00 0.00 20 1013.4
20260510143904 77 110 1.0 3.0 0.00 0.00 0.00 22 1013.4
20260510143404 77 159 1.0 5.0 0.00 0.00 0.00 22 1013.4
20260510142904 76 92 1.0 5.0 0.00 0.00 0.00 22 1013.3
20260510142403 76 147 1.0 3.0 0.00 0.00 0.00 22 1013.3
20260510140404 74 117 0.0 3.0 0.00 0.00 0.00 24 1013.2
20260510135403 73 101 0.0 2.0 0.00 0.00 0.00 24 1013.1
20260510134903 72 111 1.0 2.0 0.00 0.00 0.00 25 1013.2
20260510134403 71 85 0.0 0.0 0.00 0.00 0.00 27 1013.2
20260510133903 70 85 0.0 1.0 0.00 0.00 0.00 29 1013.2
20260510133403 69 85 0.0 2.0 0.00 0.00 0.00 29 1013.1
20260510132903 68 85 0.0 2.0 0.00 0.00 0.00 30 1013.0
20260510131903 67 92 0.0 1.0 0.00 0.00 0.00 31 1013.0
20260510131404 67 92 0.0 1.0 0.00 0.00 0.00 30 1012.9
20260510130403 66 92 0.0 2.0 0.00 0.00 0.00 30 1012.7
20260510125903 67 92 0.0 2.0 0.00 0.00 0.00 28 1012.6
20260510125404 66 104 0.0 1.0 0.00 0.00 0.00 28 1012.6
20260510124903 66 104 0.0 1.0 0.00 0.00 0.00 28 1012.4
20260510124404 66 104 0.0 2.0 0.00 0.00 0.00 28 1012.4
20260510123904 67 104 0.0 3.0 0.00 0.00 0.00 27 1012.3
20260510123404 67 105 1.0 3.0 0.00 0.00 0.00 27 1012.3
20260510122904 67 84 1.0 6.0 0.00 0.00 0.00 28 1012.2
20260510122403 67 101 1.0 6.0 0.00 0.00 0.00 28 1012.1
20260510121403 66 148 0.0 3.0 0.00 0.00 0.00 28 1012.0
20260510115904 67 54 1.0 2.0 0.00 0.00 0.00 30 1011.7
20260510115403 66 55 1.0 2.0 0.00 0.00 0.00 31 1011.7
20260510114903 66 57 1.0 2.0 0.00 0.00 0.00 31 1011.7
20260510114404 67 59 1.0 2.0 0.00 0.00 0.00 31 1011.7
20260510113903 67 57 0.0 2.0 0.00 0.00 0.00 28 1011.7
20260510113403 67 59 1.0 2.0 0.00 0.00 0.00 29 1011.7
20260510112904 67 59 1.0 3.0 0.00 0.00 0.00 29 1011.7
20260510112403 67 60 1.0 3.0 0.00 0.00 0.00 29 1011.7
20260510111904 67 74 1.0 3.0 0.00 0.00 0.00 29 1011.7
20260510111403 67 74 1.0 3.0 0.00 0.00 0.00 29 1011.8
20260510110403 69 94 1.0 3.0 0.00 0.00 0.00 27 1011.9
20260510104903 69 66 1.0 3.0 0.00 0.00 0.00 28 1011.8
20260510104404 69 74 1.0 2.0 0.00 0.00 0.00 28 1011.8
20260510103904 69 74 1.0 2.0 0.00 0.00 0.00 27 1011.8
20260510103403 69 68 1.0 2.0 0.00 0.00 0.00 27 1011.8
20260510102903 69 63 1.0 2.0 0.00 0.00 0.00 27 1011.9
20260510102403 69 76 1.0 3.0 0.00 0.00 0.00 27 1011.8
20260510101903 69 71 1.0 3.0 0.00 0.00 0.00 27 1011.7
20260510095904 70 153 0.0 2.0 0.00 0.00 0.00 25 1011.7
20260510094404 71 198 0.0 1.0 0.00 0.00 0.00 25 1011.6
20260510093904 71 198 0.0 3.0 0.00 0.00 0.00 24 1011.6
20260510093403 71 198 1.0 3.0 0.00 0.00 0.00 24 1011.6
20260510092904 72 62 1.0 2.0 0.00 0.00 0.00 23 1011.5
20260510092403 72 51 1.0 5.0 0.00 0.00 0.00 23 1011.4
20260510091903 73 25 2.0 5.0 0.00 0.00 0.00 22 1011.4
20260510091404 73 42 2.0 3.0 0.00 0.00 0.00 22 1011.4
20260510090904 73 28 1.0 3.0 0.00 0.00 0.00 22 1011.4
20260510085904 73 34 2.0 6.0 0.00 0.00 0.00 21 1011.3
20260510085403 73 36 2.0 5.0 0.00 0.00 0.00 21 1011.3
20260510084404 74 28 2.0 5.0 0.00 0.00 0.00 20 1011.2
20260510083904 74 24 2.0 5.0 0.00 0.00 0.00 20 1011.2
20260510083403 74 32 1.0 5.0 0.00 0.00 0.00 20 1011.2
20260510082904 73 4 2.0 3.0 0.00 0.00 0.00 20 1011.2
20260510081903 73 35 1.0 3.0 0.00 0.00 0.00 23 1011.3
20260510081403 72 32 0.0 3.0 0.00 0.00 0.00 24 1011.3
20260510080403 71 73 1.0 2.0 0.00 0.00 0.00 25 1011.3
20260510075903 72 80 1.0 2.0 0.00 0.00 0.00 25 1011.4
20260510075403 72 52 0.0 1.0 0.00 0.00 0.00 25 1011.4
20260510074903 73 5 0.0 1.0 0.00 0.00 0.00 22 1011.4
20260510073903 74 5 0.0 1.0 0.00 0.00 0.00 21 1011.3
20260510073404 74 5 0.0 1.0 0.00 0.00 0.00 21 1011.3
20260510072904 74 5 0.0 1.0 0.00 0.00 0.00 22 1011.5
20260510072404 73 5 0.0 1.0 0.00 0.00 0.00 23 1011.4
20260510071403 74 5 1.0 1.0 0.00 0.00 0.00 25 1011.4
20260510070903 75 5 1.0 1.0 0.00 0.00 0.00 23 1011.4
20260510070403 76 5 0.0 1.0 0.00 0.00 0.00 21 1011.4
20260510065904 77 5 0.0 2.0 0.00 0.00 0.00 19 1011.4
20260510065403 78 0 0.0 2.0 0.00 0.00 0.00 18 1011.3
20260510064903 76 339 1.0 2.0 0.00 0.00 0.00 20 1011.3
20260510064403 76 22 1.0 2.0 0.00 0.00 0.00 21 1011.3
20260510063904 76 39 0.0 2.0 0.00 0.00 0.00 21 1011.3
20260510062903 75 39 2.0 3.0 0.00 0.00 0.00 26 1011.3
20260510062404 74 21 1.0 2.0 0.00 0.00 0.00 28 1011.1
20260510061904 74 21 1.0 1.0 0.00 0.00 0.00 30 1011.2
20260510061403 74 21 0.0 1.0 0.00 0.00 0.00 31 1011.1
20260510060904 75 21 0.0 1.0 0.00 0.00 0.00 28 1011.0
20260510060403 75 21 0.0 2.0 0.00 0.00 0.00 27 1011.0
20260510055905 76 21 1.0 2.0 0.00 0.00 0.00 26 1010.9
20260510055404 75 21 0.0 2.0 0.00 0.00 0.00 25 1010.9
20260510053903 76 21 0.0 1.0 0.00 0.00 0.00 26 1010.7
20260510052903 76 21 1.0 2.0 0.00 0.00 0.00 25 1010.5
20260510052404 77 5 0.0 1.0 0.00 0.00 0.00 25 1010.4
20260510051904 77 5 0.0 1.0 0.00 0.00 0.00 26 1010.4
20260510051403 77 5 0.0 1.0 0.00 0.00 0.00 25 1010.3
20260510050904 77 5 0.0 1.0 0.00 0.00 0.00 26 1010.3
20260510050403 78 5 0.0 1.0 0.00 0.00 0.00 25 1010.3
20260510045903 78 5 0.0 1.0 0.00 0.00 0.00 25 1010.2
20260510045403 79 5 0.0 2.0 0.00 0.00 0.00 24 1010.2
20260510044903 79 5 0.0 2.0 0.00 0.00 0.00 21 1010.1
20260510044403 79 5 1.0 2.0 0.00 0.00 0.00 22 1010.1
20260510043903 80 5 0.0 0.0 0.00 0.00 0.00 21 1010.0
20260510043404 80 5 0.0 0.0 0.00 0.00 0.00 22 1010.0
20260510042904 80 5 0.0 1.0 0.00 0.00 0.00 21 1009.9
20260510042404 81 5 0.0 1.0 0.00 0.00 0.00 19 1009.8
20260510041904 82 5 0.0 1.0 0.00 0.00 0.00 17 1009.7
20260510041403 82 5 0.0 0.0 0.00 0.00 0.00 17 1009.7
20260510040403 83 5 0.0 1.0 0.00 0.00 0.00 17 1009.6
20260510035904 84 5 0.0 0.0 0.00 0.00 0.00 15 1009.5
20260510035404 85 5 0.0 0.0 0.00 0.00 0.00 14 1009.5
20260510034904 85 5 0.0 1.0 0.00 0.00 0.00 13 1009.4
20260510033904 86 19 0.0 2.0 0.00 0.00 0.00 13 1009.2
20260510033403 86 19 0.0 2.0 0.00 0.00 0.00 13 1009.2
20260510032903 87 25 0.0 3.0 0.00 0.00 0.00 12 1009.1
20260510032403 87 25 0.0 3.0 0.00 0.00 0.00 12 1009.1
20260510031403 88 344 0.0 2.0 0.00 0.00 0.00 12 1008.9
20260510030904 88 352 1.0 2.0 0.00 0.00 0.00 12 1008.8
20260510030404 88 354 0.0 2.0 0.00 0.00 0.00 12 1008.8
20260510025903 89 355 1.0 2.0 0.00 0.00 0.00 12 1008.7
20260510024904 89 0 1.0 2.0 0.00 0.00 0.00 11 1008.5
20260510024403 90 1 0.0 2.0 0.00 0.00 0.00 11 1008.4
20260510023403 90 344 0.0 2.0 0.00 0.00 0.00 11 1008.4
20260510022904 91 344 1.0 3.0 0.00 0.00 0.00 10 1008.4
20260510022404 91 313 1.0 3.0 0.00 0.00 0.00 10 1008.3
20260510021903 92 5 2.0 3.0 0.00 0.00 0.00 10 1008.3
20260510021403 92 345 1.0 3.0 0.00 0.00 0.00 10 1008.3
20260510020904 93 319 1.0 6.0 0.00 0.00 0.00 10 1008.1
20260510020404 93 358 2.0 6.0 0.00 0.00 0.00 9 1008.1
20260510015904 93 333 2.0 6.0 0.00 0.00 0.00 9 1008.0
20260510015404 94 316 1.0 3.0 0.00 0.00 0.00 9 1008.1
20260510014903 94 14 1.0 5.0 0.00 0.00 0.00 9 1008.0
20260510014404 94 322 2.0 5.0 0.00 0.00 0.00 9 1008.0
20260510013903 95 339 1.0 3.0 0.00 0.00 0.00 9 1007.9
20260510013403 95 207 1.0 5.0 0.00 0.00 0.00 9 1007.9
20260510012904 95 283 1.0 7.0 0.00 0.00 0.00 9 1008.0
20260510012403 96 313 3.0 7.0 0.00 0.00 0.00 9 1007.9
20260510011403 95 339 1.0 3.0 0.00 0.00 0.00 9 1007.9
20260510010903 96 292 2.0 8.0 0.00 0.00 0.00 9 1007.9
20260510010403 96 327 2.0 8.0 0.00 0.00 0.00 9 1007.8
20260510005903 96 304 3.0 6.0 0.00 0.00 0.00 9 1007.9
20260510005404 96 345 1.0 5.0 0.00 0.00 0.00 9 1007.9
20260510004903 96 336 3.0 6.0 0.00 0.00 0.00 9 1008.0
20260510004404 97 218 2.0 6.0 0.00 0.00 0.00 9 1008.0
20260510003903 96 70 0.0 5.0 0.00 0.00 0.00 9 1008.0
20260510003404 97 199 2.0 5.0 0.00 0.00 0.00 9 1008.0
20260510002904 97 350 2.0 5.0 0.00 0.00 0.00 8 1008.0
20260510002404 97 288 3.0 6.0 0.00 0.00 0.00 9 1008.1
20260510001404 98 216 2.0 9.0 0.00 0.00 0.00 9 1008.1
20260510000904 97 21 2.0 8.0 0.00 0.00 0.00 9 1008.1
20260510000404 98 341 3.0 7.0 0.00 0.00 0.00 8 1008.1
20260509235903 98 231 2.0 7.0 0.00 0.00 0.00 8 1008.2
20260509235404 98 213 2.0 7.0 0.00 0.00 0.00 8 1008.1
20260509234903 98 319 2.0 8.0 0.00 0.00 0.00 9 1008.4
20260509234404 98 357 2.0 8.0 0.00 0.00 0.00 9 1008.4
20260509233903 99 5 4.0 8.0 0.00 0.00 0.00 8 1008.5
20260509233404 99 324 2.0 8.0 0.00 0.00 0.00 8 1008.5
20260509232904 99 231 3.0 8.0 0.00 0.00 0.00 8 1008.5
20260509232404 100 236 3.0 8.0 0.00 0.00 0.00 8 1008.6
20260509231904 99 190 3.0 8.0 0.00 0.00 0.00 8 1008.6
20260509231403 100 52 2.0 12.0 0.00 0.00 0.00 8 1008.6
20260509230903 100 301 5.0 12.0 0.00 0.00 0.00 9 1008.6
20260509230404 100 325 2.0 12.0 0.00 0.00 0.00 8 1008.6
20260509225904 100 248 3.0 9.0 0.00 0.00 0.00 8 1008.7
20260509225404 100 244 2.0 6.0 0.00 0.00 0.00 8 1008.7
20260509224903 100 32 2.0 12.0 0.00 0.00 0.00 9 1008.8
20260509224404 100 48 3.0 12.0 0.00 0.00 0.00 8 1008.8
20260509223903 100 207 2.0 14.0 0.00 0.00 0.00 9 1008.9
20260509222903 101 251 3.0 14.0 0.00 0.00 0.00 8 1009.1
20260509222403 100 211 1.0 6.0 0.00 0.00 0.00 8 1009.1
20260509221904 101 328 2.0 6.0 0.00 0.00 0.00 8 1009.1
20260509221404 101 252 2.0 10.0 0.00 0.00 0.00 8 1009.3
20260509220904 101 39 5.0 12.0 0.00 0.00 0.00 8 1009.4
20260509220404 101 227 4.0 12.0 0.00 0.00 0.00 8 1009.5
20260509215404 100 227 3.0 9.0 0.00 0.00 0.00 9 1009.6
20260509214904 100 44 3.0 7.0 0.00 0.00 0.00 9 1009.6
20260509214403 99 218 3.0 10.0 0.00 0.00 0.00 9 1009.7
20260509213904 100 34 3.0 10.0 0.00 0.00 0.00 9 1009.9
20260509213403 101 233 5.0 12.0 0.00 0.00 0.00 9 1009.9
20260509212904 100 359 2.0 12.0 0.00 0.00 0.00 9 1009.8
20260509212404 100 305 5.0 9.0 0.00 0.00 0.00 9 1010.0
20260509211904 99 242 3.0 9.0 0.00 0.00 0.00 9 1010.0